HAWK-6A

导读

HAWK-6A是美国鹰眼360公司集群6中的一颗下一代射频监测卫星,于2023年1月24日由电子号火箭从美国弗吉尼亚州中大西洋航天港发射升空,进入高度550千米、倾角40.5度的近地倾斜轨道。该卫星可收集多频段射频信号,能提升全球中纬度地区重访频率,助力精准射频地理空间分析,服务相关监测应用。

Basic Information
目录编号:
55327
目录名称:
HAWK-6A
国际标识:
2023-011D
轨道中心:
EARTH
卫星名称:
HAWK-6A
卫星全名:
--
卫星状态:
在轨 (已飞行1319 天)
发射日期:
2023-01-24 UTC
国别 :
美国 (US)
星等 :
--
Orbit Information
数据来源 国际轨道数据
星历时间: 2026-09-04T09:18:47+0800
14小时前
查看轨道信息
半长轴: 6873.355km
偏心率: 0.0003625
轨道倾角: 40.497°
近地点辐角 234.492°
升交点赤经 250.309°
平近点角 125.555°
近地点: 492.726km
远地点: 497.71km
周期: 94.518分钟
每日圈数: 15.235252
Detailed Information
使用方式:
暂无
2D Orbit Map
3D Orbit Map
Orbit Altitude Analysis Chart
Orbit Inclination Analysis Chart
Orbit Comprehensive Analysis Chart
View Comprehensive Chart
Conjunction Data List
Event ID Objects TCA Miss Dist (km) Collision Risk Probability Collision Risk Index (CRI) Action
CDM_260906-213303-773505-532721
HAWK-6A (55327)
2026-09-06T
21:33:11+0000
0.904 km
远距离
2.594238E-5 中风险 0.63
CDM_260903-174505-532706-024923
HAWK-6A (55327)
2026-09-03T
17:45:30+0000
1.050 km
极远距离
1.760927E-5 中风险 0.6
CDM_260907-015805-370105-532721
HAWK-6A (55327)
2026-09-07T
01:58:27+0000
1.626 km
极远距离
3.329393E-6 低风险 0.45
CDM_260904-201403-485605-532723
HAWK-6A (55327)
2026-09-04T
20:14:01+0000
1.810 km
极远距离
1.751597E-6 低风险 0.4